Location: Geyikbay?r?
(36.8756°N, 30.4583°E)
Time: 07:47:15
(UTC+00:00)

Cosmos 1725 Rocket - Pass Details

Date: 05 August 2024
Orbit: 960 x 991 km, 82.9° (Epoch: 11 September)

Event Time Altitude Azimuth Distance (km) Brightness Sun altitude
Exits shadow 20:55:21 59° 359° (N) 1,128 4.4 -34.1°
Drops below altitude 10° 21:00:18 10° 6° (N) 2,732 7.0 -34.4°
Sets 21:02:48 0° 7° (N) 3,678 7.9 -34.6°
